Weather History for Wayne, NE

Change the Weather History Date:

Wednesday, May 1, 2013

  Actual Average (KOFK) Record (KOFK)
Temperature  
Mean Temperature 40 °F 56 °F  
Max Temperature 48 °F 68 °F 95 °F (1955)
Min Temperature 33 °F 43 °F 21 °F (1909)
Degree Days  
Heating Degree Days 24 10  
Month to date heating degree days 10  
Since 1 July heating degree days 6433  
Cooling Degree Days 0 1  
Month to date cooling degree days 1  
Year to date cooling degree days 13  
Moisture  
Dew Point 35 °F    
Average Humidity 90    
Maximum Humidity 99    
Minimum Humidity 72    
Precipitation  
Precipitation 0.75 in 0.10 in 1.65 in (1979)
Month to date precipitation 0.10  
Year to date precipitation 5.87  
Snow  
Snow 0.00 in 0.00 in - ()
Month to date snowfall 0.0  
Since 1 July snowfall 30.5  
Snow Depth -    
Sea Level Pressure  
Sea Level Pressure 30.29 in    
Wind  
Wind Speed 14 mph (North)    
Max Wind Speed 23 mph    
Max Gust Speed 32 mph    
Visibility 6 miles    
Events Rain , Snow , Thunderstorm    
T = Trace of Precipitation, MM = Missing Value Source: NWS Daily Summary

Daily Weather History Graph

Daily Weather History Graph

Search for Another Location

Airport:

Trip Planner

Search our weather history database for the weather conditions in past years. The results will help you decide how hot, cold, wet, or windy it might be!

Date:

Astronomy

May. 01, 2013 Rise Set
Actual Time 6:23 AM CDT 8:27 PM CDT
Civil Twilight 5:52 AM CDT 8:58 PM CDT
Nautical Twilight 5:14 AM CDT 9:36 PM CDT
Astronomical Twilight 4:33 AM CDT 10:17 PM CDT
Moon 1:38 AM CDT (5/1) 12:02 PM CDT (5/1)
Length of Visible Light 15h 05m
Length of Day
14h 04m
Waning Gibbous, 59% of the Moon is Illuminated
May 1
Waning Gibbous
May 2
Last Quarter
May 9
New
May 17
First Quarter
May 24
Full

Hourly Weather History & Observations

Time (CDT) Temp. Windchill Dew Point Humidity Pressure Visibility Wind Dir Wind Speed Gust Speed Precip Events Conditions
12:15 AM 47.5 °F - 40.3 °F 76% 30.06 in 4.0 mi North 11.5 mph 26.5 mph 0.04 in Rain , Thunderstorm Light Thunderstorms and Rain
12:35 AM 48.2 °F - 39.4 °F 72% 30.04 in 10.0 mi NNE 23.0 mph 32.2 mph 0.04 in Rain Light Rain
12:55 AM 47.8 °F - 40.8 °F 77% 30.05 in 10.0 mi North 16.1 mph - 0.04 in Rain Rain
1:15 AM 48.2 °F - 40.6 °F 75% 30.04 in 10.0 mi North 18.4 mph 24.2 mph N/A Rain , Thunderstorm Rain
1:35 AM 46.8 °F - 41.5 °F 82% 30.07 in 4.0 mi North 16.1 mph 21.9 mph 0.04 in Rain Light Rain
1:55 AM 45.5 °F 37.1 °F 42.6 °F 90% 30.05 in 2.5 mi North 23.0 mph 29.9 mph 0.09 in   Overcast
2:15 AM 45.0 °F 37.1 °F 42.8 °F 92% 30.07 in 2.5 mi North 19.6 mph 28.8 mph 0.05 in   Overcast
2:35 AM 44.8 °F 37.4 °F 43.0 °F 93% 30.07 in 4.0 mi North 17.3 mph 20.7 mph 0.10 in   Overcast
3:15 AM 44.1 °F 36.2 °F 42.3 °F 93% 30.10 in 3.0 mi NNE 18.4 mph 24.2 mph 0.03 in Rain Light Rain
3:35 AM 43.7 °F 35.4 °F 41.4 °F 91% 30.09 in 4.0 mi NNE 19.6 mph - 0.06 in Rain , Thunderstorm Thunderstorms and Rain
4:15 AM 43.2 °F 36.2 °F 41.9 °F 95% 30.13 in 3.0 mi North 13.8 mph 18.4 mph 0.04 in Rain Rain
4:35 AM 42.8 °F 34.5 °F 40.8 °F 93% 30.13 in 2.5 mi NNE 18.4 mph 24.2 mph 0.10 in   Overcast
5:15 AM 41.0 °F 31.6 °F 38.7 °F 91% 30.12 in 5.0 mi NNE 20.7 mph 29.9 mph 0.03 in Rain , Thunderstorm Light Thunderstorms and Rain
5:35 AM 40.6 °F 31.2 °F 38.7 °F 93% 30.15 in 5.0 mi NNE 20.7 mph 25.3 mph 0.05 in Rain Rain
5:55 AM 40.3 °F 31.9 °F 37.9 °F 91% 30.21 in 4.0 mi North 16.1 mph 23.0 mph 0.10 in Rain Light Rain
6:15 AM 38.7 °F 29.5 °F 36.5 °F 92% 30.22 in 2.5 mi North 17.3 mph 23.0 mph 0.05 in   Overcast
6:35 AM 36.7 °F 26.9 °F 34.9 °F 93% 30.20 in 2.5 mi North 17.3 mph - 0.09 in Snow Light Snow
6:55 AM 34.5 °F 25.7 °F 33.4 °F 96% 30.20 in 5.0 mi North 12.7 mph 18.4 mph 0.12 in Snow Light Snow
7:15 AM 34.0 °F 25.0 °F 33.3 °F 97% 30.25 in 4.0 mi North 12.7 mph - 0.01 in Snow Light Snow
7:35 AM 34.2 °F 25.7 °F 33.4 °F 97% 30.25 in 4.0 mi North 11.5 mph 17.3 mph 0.02 in Snow Light Snow
8:15 AM 33.3 °F 25.1 °F 32.9 °F 99% 30.26 in 2.0 mi North 10.4 mph - 0.02 in Snow Light Snow
8:35 AM 33.3 °F 25.7 °F 32.9 °F 99% 30.29 in 1.5 mi North 9.2 mph - 0.05 in Snow Light Snow
8:55 AM 33.4 °F 24.3 °F 33.1 °F 99% 30.27 in 2.0 mi North 12.7 mph - 0.06 in Snow Light Snow
9:15 AM 33.3 °F 24.6 °F 32.9 °F 99% 30.26 in 1.2 mi North 11.5 mph - 0.01 in Snow , Thunderstorm Light Thunderstorms and Snow
9:35 AM 33.6 °F 25.0 °F 33.1 °F 98% 30.28 in 1.8 mi North 11.5 mph - 0.02 in Snow Light Snow
9:55 AM 33.4 °F 23.9 °F 33.1 °F 99% 30.27 in 1.0 mi North 13.8 mph - 0.03 in Snow Light Snow
10:15 AM 33.4 °F 23.9 °F 33.1 °F 99% 30.27 in 1.0 mi North 13.8 mph - N/A Snow Light Snow
10:35 AM 33.8 °F 25.3 °F 33.1 °F 97% 30.30 in 1.8 mi North 11.5 mph - 0.01 in Snow Light Snow
10:55 AM 33.8 °F 25.3 °F 33.1 °F 97% 30.29 in 2.5 mi North 11.5 mph 17.3 mph 0.01 in Snow Light Snow
11:15 AM 33.8 °F 25.8 °F 32.9 °F 96% 30.30 in 1.2 mi North 10.4 mph - N/A Snow Light Snow
11:35 AM 33.8 °F 25.3 °F 33.1 °F 97% 30.31 in 1.2 mi North 11.5 mph 18.4 mph 0.01 in Snow Light Snow
11:55 AM 33.8 °F 23.5 °F 32.9 °F 96% 30.32 in 1.5 mi North 16.1 mph 23.0 mph 0.01 in Snow Light Snow
12:15 PM 33.8 °F 23.9 °F 32.9 °F 96% 30.32 in 1.2 mi North 15.0 mph 21.9 mph N/A Snow Light Snow
12:35 PM 33.8 °F 24.8 °F 32.9 °F 96% 30.33 in 1.5 mi North 12.7 mph 18.4 mph N/A Snow Light Snow
12:55 PM 33.8 °F 24.3 °F 32.9 °F 96% 30.33 in 2.0 mi North 13.8 mph - N/A Snow Light Snow
1:15 PM 34.0 °F 25.5 °F 33.1 °F 96% 30.33 in 2.0 mi North 11.5 mph 17.3 mph N/A Snow Light Snow
1:35 PM 34.3 °F 25.5 °F 33.1 °F 95% 30.34 in 3.0 mi North 12.7 mph 17.3 mph N/A Rain Light Rain
1:55 PM 34.3 °F 25.0 °F 32.9 °F 94% 30.34 in 3.0 mi North 13.8 mph - 0.01 in Rain Light Rain
2:35 PM 34.0 °F 24.2 °F 33.1 °F 96% 30.36 in 1.8 mi North 15.0 mph - N/A   Overcast
3:15 PM 35.6 °F 25.9 °F 33.4 °F 92% 30.35 in 7.0 mi North 16.1 mph 20.7 mph N/A Rain Light Rain
3:35 PM 35.6 °F 27.1 °F 33.4 °F 92% 30.37 in 5.0 mi NNE 12.7 mph - N/A Rain Light Rain
4:15 PM 36.3 °F 29.5 °F 33.8 °F 91% 30.38 in 7.0 mi North 9.2 mph - N/A   Light Drizzle
4:35 PM 36.1 °F 29.9 °F 33.8 °F 91% 30.39 in 10.0 mi North 8.1 mph - N/A Rain Light Rain
4:55 PM 36.5 °F 31.0 °F 33.8 °F 90% 30.40 in 10.0 mi NNE 6.9 mph - N/A   Light Drizzle
5:15 PM 36.7 °F 30.5 °F 33.4 °F 88% 30.40 in 10.0 mi NNE 8.1 mph - N/A Rain Light Rain
5:35 PM 36.7 °F 31.2 °F 33.8 °F 89% 30.41 in 7.0 mi North 6.9 mph - N/A   Light Drizzle
5:55 PM 36.5 °F 29.7 °F 33.6 °F 89% 30.42 in 10.0 mi North 9.2 mph - N/A Rain Light Rain
6:15 PM 36.5 °F 29.2 °F 33.4 °F 89% 30.41 in 7.0 mi North 10.4 mph - N/A Rain Light Rain
6:35 PM 36.5 °F 29.7 °F 33.3 °F 88% 30.40 in 10.0 mi NNE 9.2 mph - N/A Rain Light Rain
6:55 PM 36.1 °F 30.6 °F 33.1 °F 89% 30.42 in 10.0 mi NNE 6.9 mph - N/A   Overcast
7:15 PM 36.1 °F 31.4 °F 33.4 °F 90% 30.43 in 10.0 mi NNE 5.8 mph - N/A   Overcast
7:35 PM 35.8 °F 31.9 °F 33.6 °F 92% 30.43 in 10.0 mi North 4.6 mph - N/A   Overcast
7:55 PM 36.7 °F 30.5 °F 32.9 °F 86% 30.43 in 10.0 mi North 8.1 mph - N/A   Overcast
8:35 PM 36.3 °F 29.5 °F 32.9 °F 87% 30.42 in 10.0 mi North 9.2 mph - N/A   Overcast
8:55 PM 36.5 °F 30.3 °F 32.9 °F 87% 30.42 in 10.0 mi NNE 8.1 mph - N/A   Overcast
9:35 PM 36.9 °F 29.1 °F 31.6 °F 81% 30.43 in 10.0 mi NNE 11.5 mph - N/A   Scattered Clouds
9:55 PM 36.5 °F 31.0 °F 32.0 °F 84% 30.44 in 10.0 mi North 6.9 mph - N/A   Clear
10:15 PM 36.5 °F 29.7 °F 32.0 °F 84% 30.44 in 10.0 mi NNE 9.2 mph - N/A   Scattered Clouds
10:35 PM 36.9 °F 29.6 °F 31.3 °F 80% 30.45 in 10.0 mi North 10.4 mph - N/A   Scattered Clouds
10:55 PM 37.4 °F 28.9 °F 30.6 °F 76% 30.46 in 10.0 mi North 13.8 mph 17.3 mph N/A   Mostly Cloudy
11:15 PM 37.4 °F 28.9 °F 30.2 °F 75% 30.45 in 10.0 mi NNE 13.8 mph 18.4 mph N/A   Overcast
11:35 PM 37.4 °F 29.3 °F 30.2 °F 75% 30.47 in 10.0 mi North 12.7 mph - N/A   Mostly Cloudy
11:55 PM 37.4 °F 30.8 °F 30.2 °F 75% 30.49 in 10.0 mi North 9.2 mph - N/A   Mostly Cloudy